Location: Altmatt
(47.1333°N, 8.7000°E)
Time: 02:23:39
(UTC+00:00)

Cosmos 2056 Rocket - Pass Details

Date: 13 July 2020
Orbit: 741 x 801 km, 74.0° (Epoch: 04 August)

Event Time Altitude Azimuth Distance (km) Brightness Sun altitude
Rises 21:34:11 0° 332° (NNW) 3,316 8.7 -16.3°
Reaches altitude 10° 21:36:40 10° 327° (NNW) 2,385 7.4 -16.5°
Maximum altitude 21:41:49 46° 256° (WSW) 1,073 4.3 -16.9°
Enters shadow 21:45:08 21° 193° (SSW) 1,735 4.9 -17.2°
